RH
12 22 26 28 36 45 50 24 22 16 10 8 8 11 12 13 14 13 12 12 20 20 20 21 20 20 19 18 14 8 5 2 2 1 2 2 2 3 3 3 3 4 4
5 9 24 28 27 28 40 57 21 22 14 9 8 10 12 13 13 13 12 9 18 21 22 21 21 19 19 16 11 6 4 2 2 1 2 2 2 3 3 3 2 3 5
3 3 11 28 28 28 29 43 64 19 19 11 9 8 11 13 13 12 11 8 11 20 22 23 22 20 18 16 10 4 3 2 2 2 2 2 2 3 3 4 3 3 3
3 3 4 12 21 24 28 29 42 62 18 15 11 8 9 11 12 13 12 9 7 15 21 23 23 21 19 17 10 4 3 2 2 2 2 3 3 3 3 4 3 3 3
4 4 3 3 8 12 20 25 28 39 54 16 13 11 8 8 10 12 13 11 8 9 18 22 23 22 20 18 13 6 4 3 3 3 3 3 3 4 4 4 4 3 2
4 4 4 4 4 6 9 21 24 28 34 48 15 12 12 7 7 8 10 11 9 7 13 20 23 23 23 19 15 9 5 4 4 3 3 3 4 4 4 4 3 3 2
5 5 5 5 10 6 13 14 17 24 27 33 45 15 14 12 7 7 7 9 9 7 9 16 22 23 24 22 18 13 7 5 5 4 3 4 4 4 4 4 3 2 2
6 6 5 5 10 18 17 16 16 19 23 29 35 47 19 18 11 7 6 7 8 7 8 13 20 23 25 24 22 19 12 8 6 4 4 4 4 3 3 3 2 2 3
8 7 7 6 5 5 12 23 26 24 27 28 35 42 46 24 20 10 6 6 7 7 8 11 17 22 25 26 24 23 20 15 9 6 6 4 4 4 3 3 3 3 4
7 7 6 6 5 5 5 8 28 29 24 22 24 38 46 45 29 19 9 6 7 7 8 10 14 20 24 26 26 23 22 20 17 13 11 9 6 4 4 4 4 4 8
8 8 7 6 6 5 5 5 10 26 46 24 21 27 32 51 46 29 16 8 7 7 9 11 13 17 22 27 27 25 20 18 20 17 14 12 10 7 5 4 5 8 9
10 9 9 9 8 6 6 5 6 14 33 46 31 21 28 31 57 39 27 10 7 7 8 12 13 15 19 27 28 28 20 13 13 14 14 11 11 9 7 6 10 10 15
13 12 11 10 9 7 7 6 5 6 20 38 42 38 23 29 34 55 36 21 8 7 8 13 15 15 17 26 30 30 28 15 14 15 15 12 13 12 11 11 10 16 18
16 15 14 13 11 9 8 7 6 5 7 21 39 45 34 26 34 50 50 33 13 8 8 14 17 17 16 19 24 29 31 26 15 16 16 14 11 12 11 11 16 19 21
21 19 18 16 14 12 10 8 7 6 6 13 26 46 52 37 30 36 64 44 27 9 8 13 17 18 17 15 15 20 30 32 27 18 18 17 14 12 13 17 21 23 23
27 25 23 21 19 16 13 11 10 9 8 9 14 36 56 60 44 34 53 74 41 18 9 10 17 19 18 16 15 13 19 29 31 27 21 19 17 15 16 20 26 26 29
34 30 28 25 21 16 12 12 12 11 10 11 11 16 42 64 68 50 40 62 80 32 11 8 14 19 20 18 17 14 13 18 30 27 26 21 19 17 17 25 28 28 32
39 35 28 18 10 9 10 9 12 13 12 12 12 13 24 44 78 76 50 54 75 59 23 9 11 18 20 21 19 18 14 13 22 27 25 22 21 20 20 24 26 30 36
40 31 23 15 13 16 16 15 15 16 14 12 11 12 14 37 63 91 79 57 61 77 46 16 10 16 19 21 21 20 19 14 13 25 26 24 25 23 23 24 26 30 36
40 29 22 21 21 23 24 23 21 19 16 14 12 11 11 21 46 83 96 78 68 58 69 36 12 12 18 19 20 20 21 20 14 14 27 28 28 27 26 26 26 31 36
40 30 30 27 27 27 28 25 21 18 16 14 13 11 9 10 33 54 100 98 73 69 59 52 24 10 14 19 19 20 21 22 22 16 14 26 31 32 31 29 30 34 38
39 33 35 34 33 32 28 23 20 18 15 12 10 9 9 7 16 32 84 96 100 73 68 55 37 16 10 15 19 19 20 21 24 23 19 13 18 29 34 36 37 40 43
51 46 43 42 39 33 27 24 20 15 12 11 10 8 6 6 7 32 52 92 96 79 70 63 52 30 12 12 17 19 18 20 20 22 23 20 13 14 22 34 39 45 47
55 51 48 45 40 36 29 24 19 18 15 12 18 15 13 8 6 22 40 56 97 96 70 75 55 39 18 12 13 18 18 18 18 20 21 21 20 14 13 19 34 40 46
56 54 54 50 45 38 32 24 21 25 27 18 12 11 31 38 16 10 40 76 97 96 96 71 68 38 29 15 13 15 17 18 18 18 18 19 20 18 14 13 16 25 36
58 55 57 58 54 46 41 32 27 29 35 25 15 14 21 28 28 12 35 66 89 97 98 87 75 52 32 19 16 14 14 17 18 18 19 20 20 18 17 14 13 13 16
Wind_Speed
18 20 20 19 18 15 14 11 14 14 14 13 14 15 14 13 12 10 9 9 5 3 2 1 2 3 4 4 5 3 3 4 6 8 9 10 11 13 12 11 11 9 9
18 17 23 23 20 17 16 15 13 15 16 17 17 17 17 16 14 12 10 10 8 5 2 1 2 3 6 6 5 4 3 5 8 9 10 11 11 12 11 9 8 10 9
19 19 21 25 25 22 18 18 16 16 18 18 19 20 19 18 17 15 13 12 11 7 4 2 3 4 6 7 5 5 4 5 8 9 10 12 11 11 11 8 6 6 6
18 18 23 26 28 29 25 22 19 18 18 20 20 22 22 21 19 18 16 14 13 11 7 5 5 5 6 7 6 5 4 5 8 9 10 11 11 10 10 8 4 3 2
22 21 21 26 30 30 30 28 24 21 20 21 22 22 24 24 22 21 19 17 15 14 11 8 7 6 7 7 7 6 5 4 5 7 8 9 9 9 9 8 5 2 1
25 25 24 23 27 31 30 32 31 27 23 23 23 24 24 25 25 23 22 21 18 16 15 13 10 8 8 9 8 8 7 7 7 8 9 7 8 8 8 8 6 4 2
26 26 26 25 26 28 32 32 33 33 30 27 25 26 25 25 26 26 25 24 22 19 18 16 13 11 10 11 11 11 11 11 9 8 8 7 8 9 9 8 7 5 5
28 28 28 28 27 27 28 33 34 35 36 33 29 28 27 26 27 28 27 27 25 23 21 19 17 14 12 13 13 14 14 14 12 10 10 10 10 10 10 9 8 7 8
30 30 30 30 30 28 28 31 31 35 36 37 36 32 30 29 28 28 29 29 28 27 24 22 21 18 16 15 14 16 16 16 14 14 13 13 13 14 13 11 10 9 9
31 31 31 32 33 33 32 31 32 33 38 39 39 38 34 33 31 30 30 31 30 30 28 26 24 21 19 17 16 16 16 17 17 17 16 15 15 14 14 13 11 9 9
33 34 33 33 33 34 34 34 33 35 36 40 42 42 38 37 35 33 32 33 32 33 31 29 27 24 22 19 17 17 17 18 19 19 18 18 18 17 16 14 12 11 8
36 35 34 34 35 35 36 36 36 36 38 39 40 45 44 42 39 37 35 35 35 35 34 31 29 27 25 23 20 18 19 19 19 18 17 16 18 17 16 15 13 11 9
38 37 37 37 37 38 37 38 39 40 40 41 42 43 48 47 44 40 38 37 38 37 36 33 32 30 28 26 23 20 21 21 21 19 16 15 15 15 16 16 13 10 11
40 40 40 39 38 40 40 39 41 43 44 44 45 46 48 51 47 45 41 41 40 40 40 37 36 34 31 29 27 24 22 23 23 21 19 16 14 15 15 15 13 12 13
42 43 42 42 41 40 40 41 42 45 46 47 47 49 48 51 52 48 46 44 43 43 43 42 40 38 35 33 30 29 26 25 24 25 22 19 18 18 17 17 14 13 12
45 44 43 43 43 44 43 44 45 46 48 48 48 49 51 51 54 52 50 49 47 46 46 46 44 42 40 37 33 32 30 27 27 26 26 23 22 21 20 19 17 16 14
43 44 45 45 45 45 46 47 48 48 48 49 50 51 51 53 54 55 54 51 53 49 50 49 48 45 43 40 36 34 32 31 29 29 28 27 25 24 24 23 21 19 17
44 44 46 46 46 44 45 47 50 52 51 51 52 51 54 54 57 57 56 54 54 52 52 51 52 48 46 44 41 37 35 34 32 30 30 29 28 28 27 26 24 22 21
45 44 45 45 45 45 45 49 53 54 54 53 54 54 55 57 59 59 58 57 55 56 54 54 54 53 51 48 45 42 39 37 34 33 31 31 30 30 31 29 28 27 25
43 44 45 45 43 43 44 47 51 51 52 54 54 56 57 58 60 63 61 59 60 58 59 56 56 56 55 53 50 47 44 40 37 35 33 32 32 32 33 32 31 30 30
43 44 45 43 43 43 44 46 48 50 52 55 56 57 57 60 61 64 64 71 65 62 60 60 59 58 59 57 54 51 47 43 40 37 36 35 34 34 34 35 34 33 33
42 42 43 42 42 43 43 45 47 49 50 54 56 61 61 60 66 69 77 58 67 68 64 64 60 60 60 60 57 54 51 48 44 40 38 37 38 38 37 36 36 36 36
42 41 42 41 41 41 41 44 45 47 49 52 55 58 62 62 67 73 81 75 59 73 69 66 65 61 61 62 60 58 54 51 48 45 43 41 41 40 40 39 39 40 39
40 40 41 41 41 40 40 42 42 41 41 45 50 53 61 67 68 76 82 82 70 70 79 70 70 66 64 62 63 61 58 55 53 50 48 46 44 43 44 44 44 43 43
37 38 39 40 39 39 40 42 43 42 42 44 44 46 50 62 67 79 82 80 84 62 66 76 73 69 66 65 64 63 61 59 57 54 51 49 49 49 48 47 46 46 46
36 38 39 39 39 40 40 40 42 43 45 45 43 44 46 56 64 76 83 85 81 77 65 85 77 72 67 67 66 65 64 62 60 58 57 57 55 52 50 48 48 49 49
Wind_Direction
240 236 235 238 242 237 235 225 218 213 203 204 199 191 188 186 183 180 173 171 167 164 159 161 171 172 146 147 138 133 131 143 154 154 149 152 155 146 141 123 110 98 90
243 234 231 232 236 238 234 234 227 221 215 205 205 203 201 197 197 197 192 192 191 186 192 207 182 168 157 157 155 137 134 149 159 157 154 154 157 163 160 136 120 104 92
246 233 225 231 233 235 231 233 234 228 224 216 208 207 207 207 206 207 207 203 208 208 210 212 208 192 181 167 164 148 143 142 157 162 161 162 166 173 176 161 130 108 99
241 231 221 222 230 233 235 229 229 233 230 226 219 212 212 210 209 213 216 211 213 214 222 231 225 208 197 182 174 166 153 157 163 165 168 170 173 177 183 180 161 124 94
247 242 232 223 228 231 233 235 231 228 232 231 228 221 217 216 212 214 219 221 217 216 220 235 247 229 212 207 195 191 188 180 185 177 183 184 190 183 189 194 200 218 91
245 245 241 237 229 231 231 231 235 234 231 234 230 229 223 220 219 217 217 221 221 218 217 227 241 239 223 220 213 209 208 204 203 202 193 191 193 184 193 208 221 239 237
244 244 245 240 235 231 233 231 232 235 234 233 232 231 227 226 224 221 221 220 219 218 218 222 232 238 229 223 220 216 219 216 217 215 209 206 211 208 207 216 227 239 274
246 246 244 243 239 234 236 237 232 233 234 235 233 234 230 228 226 226 223 224 220 217 218 219 226 233 232 224 223 222 224 225 221 221 225 228 231 227 221 225 240 266 287
246 244 245 246 244 240 235 238 241 237 235 234 234 233 234 230 229 227 226 226 224 218 217 219 223 227 229 228 224 225 226 230 228 228 232 234 238 240 236 241 256 272 290
247 248 247 246 248 247 243 237 239 240 238 237 233 233 233 235 232 229 227 228 225 222 217 217 221 225 228 229 229 229 229 231 233 234 236 238 242 246 246 245 253 264 279
247 248 248 247 244 246 248 246 242 242 240 238 237 233 232 234 235 233 228 227 228 225 220 217 221 223 228 230 230 231 233 233 235 237 237 240 242 244 248 250 256 260 264
249 246 244 248 249 245 246 246 246 245 245 243 238 235 233 232 233 233 233 229 227 227 224 221 220 222 226 229 229 232 231 232 230 232 237 240 240 241 248 251 253 254 254
250 249 246 245 246 248 247 249 249 249 246 246 243 238 236 233 232 232 231 232 228 226 225 222 223 223 223 227 229 230 233 231 231 234 238 240 235 236 243 247 241 243 266
250 250 249 249 247 248 248 249 251 252 250 245 243 240 236 235 232 231 229 231 229 225 224 219 224 224 223 225 229 231 235 234 233 237 239 239 235 232 233 238 236 253 277
251 250 251 250 251 251 252 251 251 252 249 247 243 240 237 234 233 230 231 230 229 227 225 219 221 226 225 224 226 230 232 236 235 237 240 238 236 235 233 234 241 261 273
249 250 250 251 252 253 253 254 252 250 249 247 244 240 237 235 233 231 229 229 231 227 226 221 220 223 226 225 225 229 232 236 237 236 238 237 236 236 237 237 248 262 266
249 251 251 252 253 254 254 254 253 251 248 247 246 242 237 236 235 232 229 230 228 228 226 224 222 222 227 228 226 228 231 235 241 240 235 234 234 233 234 239 250 261 262
248 249 251 253 254 254 254 255 253 252 248 245 244 244 240 236 235 234 231 229 232 228 227 225 223 222 226 229 229 229 231 233 237 240 237 233 234 234 235 242 249 257 260
252 253 253 251 250 251 253 254 251 250 250 246 244 244 241 237 234 234 233 231 229 231 229 227 224 222 224 227 230 230 232 234 236 239 239 238 236 239 240 244 251 255 256
256 256 255 252 252 252 252 252 253 252 250 250 246 243 240 236 233 233 232 231 232 229 228 231 226 223 223 226 229 231 231 233 236 240 241 242 242 244 246 248 251 257 258
251 251 251 252 252 253 252 252 252 253 252 249 247 244 242 235 232 227 231 228 228 230 228 230 228 226 224 226 229 232 234 235 237 239 242 243 245 247 250 252 254 256 259
249 248 251 251 250 249 251 252 253 255 254 253 251 245 242 239 231 228 226 232 224 225 227 227 230 228 226 226 228 230 233 235 238 240 243 245 246 248 249 252 255 256 259
247 246 246 247 247 248 251 253 258 260 257 253 253 248 243 238 232 229 227 228 219 225 226 226 227 229 228 227 227 231 233 235 238 240 242 244 245 248 250 252 254 256 258
244 244 244 245 245 246 249 251 257 264 265 258 253 249 243 236 230 228 228 228 229 225 221 226 225 227 226 227 227 229 231 234 237 240 242 244 246 248 250 251 254 258 260
242 245 246 246 248 248 251 255 260 263 268 263 257 253 245 235 228 225 230 226 226 227 220 223 226 225 225 226 226 227 230 233 235 237 240 243 246 247 249 252 255 259 262
243 247 249 249 250 250 254 258 263 267 270 261 258 254 248 241 232 227 228 227 229 230 228 230 225 225 224 226 227 227 229 232 235 237 239 242 246 249 252 255 257 259 262